Location: Newark
(40.3500°N, 15.2333°E)
Time: 10:36:11
(UTC+00:00)

A-11 Canister half - All Passes

Search period start: 22 January 2020 00:00
Search period end: 01 February 2020 00:00
Orbit: 1517 x 1683 km, 47.2° (Epoch: 21 January)

Date Brightness Start Highest point End Pass type
(mag) Time Alt. Az. Time Alt. Az. Time Alt. Az.
22 Jan - 01:59:02 10° W 02:08:10 57° N 02:17:18 10° ENE visible
22 Jan - 04:04:46 10° WNW 04:14:02 72° NNE 04:23:26 10° ESE visible
22 Jan - 06:09:54 10° WNW 06:18:46 52° SW 06:27:51 10° SSE daylight
22 Jan - 08:18:27 10° W 08:22:04 13° WSW 08:25:44 10° SW daylight
22 Jan - 21:27:20 10° SSW 21:35:29 34° SE 21:43:28 10° ENE night (unlit)
22 Jan - 23:30:12 10° WSW 23:39:39 90° ESE 23:48:56 10° ENE visible
23 Jan - 01:36:03 10° W 01:45:12 58° N 01:54:19 10° ENE visible
23 Jan - 03:41:51 10° WNW 03:51:06 70° NNE 04:00:27 10° ESE visible
23 Jan - 05:46:58 10° WNW 05:55:54 55° SW 06:05:02 10° SE visible
23 Jan - 07:54:55 10° W 07:59:16 14° WSW 08:03:41 10° SSW daylight
23 Jan - 21:04:40 10° S 21:12:39 31° SE 21:20:27 10° ENE night (unlit)
23 Jan - 23:07:16 10° WSW 23:16:44 87° SSE 23:26:02 10° ENE night (unlit)
24 Jan - 01:13:04 10° W 01:22:14 58° N 01:31:21 10° ENE visible
24 Jan - 03:18:55 10° WNW 03:28:10 68° NNE 03:37:29 10° E visible
24 Jan - 05:24:02 10° WNW 05:33:02 58° SW 05:42:13 10° SE visible
24 Jan - 07:31:31 10° W 07:36:28 16° SW 07:41:30 10° SSW daylight
24 Jan - 20:42:02 10° S 20:49:49 29° SE 20:57:26 10° ENE night (unlit)
24 Jan - 22:44:21 10° SW 22:53:50 83° SSE 23:03:07 10° ENE night (unlit)
25 Jan - 00:50:04 10° W 00:59:16 59° N 01:08:24 10° ENE visible
25 Jan - 02:55:59 10° WNW 03:05:13 66° NNE 03:14:30 10° E visible
25 Jan - 05:01:07 10° WNW 05:10:10 62° SW 05:19:23 10° SE visible
25 Jan - 07:08:13 10° W 07:13:41 17° SW 07:19:12 10° SSW daylight
25 Jan - 20:19:25 10° S 20:27:00 27° SE 20:34:23 10° ENE night (unlit)
25 Jan - 22:21:27 10° SW 22:30:55 80° SSE 22:40:13 10° ENE night (unlit)
26 Jan - 00:27:04 10° W 00:36:18 60° N 00:45:27 10° ENE visible
26 Jan - 02:33:03 10° WNW 02:42:16 65° NNE 02:51:31 10° E visible
26 Jan - 04:38:12 10° WNW 04:47:18 65° SW 04:56:33 10° SE visible
26 Jan - 06:45:00 10° W 06:50:52 19° SW 06:56:50 10° SSW daylight
26 Jan - 19:56:50 10° S 20:04:10 25° SE 20:11:20 10° ENE visible
26 Jan - 21:58:33 10° SW 22:08:02 77° SSE 22:17:18 10° ENE night (unlit)
27 Jan - 00:04:04 10° W 00:13:21 61° N 00:22:30 10° ENE visible
27 Jan - 02:10:06 10° WNW 02:19:19 63° NNE 02:28:33 10° E visible
27 Jan - 04:15:16 10° WNW 04:24:26 68° SW 04:33:42 10° SE visible
27 Jan - 06:21:48 10° W 06:28:04 20° SW 06:34:25 10° S daylight
27 Jan - 19:34:17 10° S 19:41:20 24° SE 19:48:14 10° E visible
27 Jan - 21:35:40 10° SW 21:45:09 73° SE 21:54:24 10° ENE night (unlit)
27 Jan - 23:41:05 10° W 23:50:23 62° NNW 23:59:33 10° ENE visible
28 Jan - 01:47:09 10° WNW 01:56:22 62° NNE 02:05:34 10° E visible
28 Jan - 03:52:21 10° WNW 04:01:33 72° SW 04:10:50 10° SE visible
28 Jan - 05:58:39 10° W 06:05:15 22° SW 06:11:57 10° S daylight
28 Jan - 19:11:46 10° S 19:18:31 22° SE 19:25:08 10° E visible
28 Jan - 21:12:46 10° SW 21:22:15 70° SE 21:31:29 10° ENE visible
28 Jan - 23:18:05 10° W 23:27:26 63° NNW 23:36:37 10° ENE night (unlit)
29 Jan - 01:24:12 10° WNW 01:33:25 61° NNE 01:42:35 10° E visible
29 Jan - 03:29:26 10° WNW 03:38:40 75° SW 03:47:58 10° SE visible
29 Jan - 05:35:33 10° W 05:42:26 24° SW 05:49:26 10° S visible
29 Jan - 18:49:18 10° S 18:55:42 20° SE 19:01:59 10° E visible
29 Jan - 20:49:54 10° SW 20:59:22 67° SE 21:08:35 10° ENE visible
29 Jan - 22:55:05 10° W 23:04:29 64° NNW 23:13:42 10° ENE night (unlit)
30 Jan - 01:01:15 10° WNW 01:10:27 60° N 01:19:36 10° E visible
30 Jan - 03:06:31 10° WNW 03:15:47 78° SSW 03:25:05 10° SE visible
30 Jan - 05:12:28 10° WNW 05:19:38 26° SW 05:26:53 10° S visible
30 Jan - 18:26:53 10° SSE 18:32:54 18° SE 18:38:47 10° E visible
30 Jan - 20:27:02 10° SW 20:36:29 64° SE 20:45:40 10° ENE visible
30 Jan - 22:32:05 10° W 22:41:31 66° NNW 22:50:46 10° ENE night (unlit)
31 Jan - 00:38:16 10° WNW 00:47:29 59° N 00:56:37 10° E visible
31 Jan - 02:43:36 10° WNW 02:52:53 82° SSW 03:02:12 10° SE visible
31 Jan - 04:49:25 10° WNW 04:56:48 28° SW 05:04:18 10° S visible
31 Jan - 18:04:31 10° SSE 18:10:05 17° SE 18:15:32 10° E visible
31 Jan - 20:04:11 10° SW 20:13:36 60° SE 20:22:45 10° ENE visible
31 Jan - 22:09:05 10° W 22:18:34 67° NNW 22:27:50 10° ENE night (unlit)
